Regional Weather Roundup
Issued by NWS

Home | Current Version | Previous Version | Graphics & Text | Print | Product List | Glossary On
Versions: 1 2 3 4 5 6 7 8 9 10 11 12 13 14 15 16 17 18 19 20 21 22 23 24 25 26 27 28 29 30 31 32 33 34 35 36 37 38 39 40 41 42 43 44 45 46 47 48 49 50
490
ASUS43 KOAX 101102
RWRNE

WEATHER ROUNDUP FOR NEBRASKA
NATIONAL WEATHER SERVICE OMAHA NE
500 AM CST SAT DEC 10 2016

NOTES: SATELLITE DATA IS BEING USED TO AUGMENT CLOUD COVER ABOVE
       12000 FEET.
       "FAIR" INDICATES FEW OR NO CLOUDS BELOW 12,000 FEET WITH NO
       SIGNIFICANT WEATHER AND/OR OBSTRUCTIONS TO VISIBILITY.

  * THESE STATIONS DO NOT REPORT WEATHER SUCH AS RAIN...SNOW OR FOG.

NEZ001>004-019>022-054>056-101200-
NEBRASKA PANHANDLE

CITY           SKY/WX    TMP DP  RH WIND       PRES   REMARKS
SCOTTSBLUFF    CLOUDY    14   8  77 E12       29.99F WCI   0
ALLIANCE       CLOUDY    10   7  87 SE5       30.01F WCI   2
CHADRON        CLOUDY     4  -1  80 N6        30.07F WCI  -7
KIMBALL        CLOUDY    22  19  87 S7        29.96F WCI  13
SIDNEY         CLOUDY    18  15  88 SE10      30.01F WCI   6
$$

NEZ057>060-069>072-079>082-101200-
SOUTHWEST NEBRASKA

CITY           SKY/WX    TMP DP  RH WIND       PRES   REMARKS
NORTH PLATTE   CLOUDY    18  12  77 E7        30.18F WCI   9
IMPERIAL       CLOUDY    18  13  80 SE8       30.11F WCI   8
LEXINGTON      CLOUDY    20  14  78 E7        30.22F WCI  11
MCCOOK         CLOUDY    19  14  81 E8        30.17F WCI   9
OGALLALA       CLOUDY    18  15  86 E3        30.11F
$$

NEZ005>010-023>029-035>040-094-101200-
NORTH CENTRAL NEBRASKA

CITY           SKY/WX    TMP DP  RH WIND       PRES   REMARKS
VALENTINE      SNOW       7   3  84 E10       30.21F VSB 1/2 WCI  -8
AINSWORTH      LGT SNOW   9   7  90 E13       30.22F VSB 3/4 WCI  -7
BROKEN BOW     CLOUDY    20  15  81 E9        30.22F WCI   9
O`NEILL        LGT SNOW  10   8  88 E6        30.33F WCI   1
ORD            LGT SNOW  18  14  84 E7        30.28F FOG     WCI   9
THEDFORD       CLOUDY    13  10  88 E9        30.17F WCI   1
$$

NEZ041-046>049-061>064-073>077-083>087-101200-
SOUTH CENTRAL NEBRASKA

CITY           SKY/WX    TMP DP  RH WIND       PRES   REMARKS
GRAND ISLAND   PTCLDY    18  17  96 E8        30.31F WCI   8
AURORA         CLOUDY    20  18  90 E7        30.34F WCI  11
HASTINGS       CLOUDY    20  14  77 E7        30.31F WCI  11
HEBRON         CLOUDY    22  18  86 CALM      30.36F
HOLDREGE       CLOUDY    20  14  78 E8        30.21F WCI  10
KEARNEY *      CLOUDY    19  12  73 SE9       30.26F WCI   9
YORK           FLURRIES  21  18  86 E5        30.36F WCI  15
$$

NEZ011>018-030>034-042>045-101200-
NORTHEAST NEBRASKA

CITY           SKY/WX    TMP DP  RH WIND       PRES   REMARKS
NORFOLK        LGT SNOW  17  13  84 E7        30.37F FOG     WCI   8
ALBION         LGT SNOW  18  15  86 E7        30.34F WCI   9
BLAIR          CLOUDY    23  16  75 CALM      30.42F
FREMONT        CLOUDY    22  15  75 E3        30.43F
TEKAMAH        CLOUDY    20  14  77 N5        30.45F WCI  13
WAYNE          CLOUDY    17  14  88 E5        30.40F WCI  10
$$

NEZ050>053-065>068-078-088>093-101200-
SOUTHEAST NEBRASKA

CITY           SKY/WX    TMP DP  RH WIND       PRES   REMARKS
LINCOLN        CLOUDY    23  16  74 E5        30.43F WCI  17
OMAHA EPPLEY   CLOUDY    23  14  68 SE5       30.46F WCI  17
BEATRICE       CLOUDY    24  18  77 E5        30.39F WCI  18
FALLS CITY     CLOUDY    26  17  68 E3        30.45F
NEBRASKA CITY  CLOUDY    24  13  64 CALM      30.44F
PLATTSMOUTH    CLOUDY    23  13  65 SE5       30.44F WCI  17
$$

NEZ044-045-051>053-067-101200-
OMAHA AREA

CITY           SKY/WX    TMP DP  RH WIND       PRES   REMARKS
OMAHA EPPLEY   CLOUDY    23  14  68 SE5       30.46F WCI  17
BLAIR          CLOUDY    23  16  75 CALM      30.42F
FREMONT        CLOUDY    22  15  75 E3        30.43F
MILLARD        CLOUDY    25  17  71 CALM      30.45F
OFFUTT AFB     CLOUDY    23  17  77 E3        30.45F
PLATTSMOUTH    CLOUDY    23  13  65 SE5       30.44F WCI  17
WAHOO          CLOUDY    22  16  78 E5        30.42F WCI  16
$$




USA.gov is the U.S. government's official web portal to all federal, state and local government web resources and services.